Location: Unspecified
(29.9680°N, 0.0000°E)
Time: 05:20:32
(UTC+00:00)

Tiros 1 - Visible Passes

Search period start: 20 June 2019 00:00
Search period end: 30 June 2019 00:00
Orbit: 631 x 664 km, 48.4° (Epoch: 19 June)

Date Brightness Start Highest point End Pass type
(mag) Time Alt. Az. Time Alt. Az. Time Alt. Az.
20 Jun 9.7 00:19:07 18° NNE 00:19:07 18° NNE 00:20:43 10° NNE visible
21 Jun 9.8 00:43:13 15° NNW 00:43:18 15° NNW 00:46:00 10° NNE visible
21 Jun 10.1 04:09:36 10° N 04:11:20 12° NNE 04:13:05 10° NE visible
21 Jun 9.7 23:29:32 17° NNE 23:29:32 17° NNE 23:30:48 10° NNE visible
22 Jun 9.8 23:53:02 16° NNW 23:53:15 16° NNW 23:56:09 10° NNE visible
23 Jun 10.2 03:19:47 10° N 03:21:17 11° NNE 03:22:45 10° NE visible
23 Jun9.821:00:31ENE21:00:31ENE20:49:22SSWvisible
23 Jun 9.0 22:37:56 28° N 22:37:56 28° N 22:40:53 10° NNE visible
24 Jun 9.9 03:44:40 10° NNW 03:48:00 19° NNE 03:51:19 10° ENE visible
24 Jun 8.9 19:36:40 10° SSE 19:38:44 13° SE 19:40:49 10° E visible
24 Jun 7.1 21:15:43 10° SW 21:20:28 81° NW 21:25:11 10° NE visible
24 Jun 9.8 23:00:08 10° WNW 23:03:12 17° NNW 23:06:16 10° NNE visible
25 Jun 10.4 02:30:02 10° N 02:31:12 11° NNE 02:32:23 10° NNE visible
25 Jun 8.8 04:10:08 10° NNW 04:14:26 38° NE 04:18:44 10° ESE visible
25 Jun 7.7 20:00:13 10° SSW 20:04:31 34° SE 20:08:48 10° ENE visible
25 Jun 8.7 21:42:21 10° W 21:46:41 34° NW 21:50:58 10° NNE visible
25 Jun 10.4 23:29:10 10° NNW 23:29:59 10° NNW 23:30:48 10° N visible
26 Jun 9.9 02:54:46 10° NNW 02:57:58 18° NNE 03:01:08 10° ENE visible
26 Jun 7.1 20:25:42 10° SW 20:30:28 89° NW 20:35:12 10° NE visible
26 Jun 9.9 22:09:54 10° WNW 22:13:09 18° NNW 22:16:24 10° NNE visible
27 Jun 10.5 01:40:20 10° N 01:41:08 10° NNE 01:41:56 10° NNE visible
27 Jun 8.8 03:20:11 10° NNW 03:24:26 35° NE 03:28:39 10° E visible
27 Jun 8.7 20:52:14 10° WSW 20:56:39 37° NW 21:01:02 10° NNE visible
27 Jun 10.4 22:38:39 10° NNW 22:39:55 11° NNW 22:41:11 10° N visible
28 Jun 9.9 02:04:51 10° NNW 02:07:55 17° NNE 02:10:57 10° ENE visible
28 Jun 7.1 03:46:00 10° NW 03:50:39 84° NE 03:55:15 10° SE visible
28 Jun 7.1 19:35:42 10° SW 19:40:28 84° SE 19:45:13 10° NE visible
28 Jun 9.9 21:19:42 10° WNW 21:23:06 19° NNW 21:26:30 10° NNE visible
29 Jun 8.8 02:30:15 10° NNW 02:34:26 32° NE 02:38:34 10° E visible
29 Jun 7.6 04:12:22 10° WNW 04:16:36 36° SW 04:20:48 10° SSE visible
29 Jun 8.6 20:02:08 10° WSW 20:06:38 41° NW 20:11:06 10° NE visible
29 Jun 10.3 21:48:13 10° NW 21:49:50 11° NNW 21:51:27 10° N visible
